Capitol Logistics 304


RJAA
Tokyo-Narita International Airport
Tokyo, JP
PGUM
Guam International Airport
Guam, GU

Activity Log

Date Flight Route Aircraft Duration
09/09/2019 CPX304 N0467F350 OLVAN1 OLVAN Y823 MERED Y821 ADKAK G223 DAGDA A337 TEGOD/N0462F360 G205 UNZ B763 3h 29m

Route Details

Aircraft Information
Primary: Boeing 767-300BDSF
Backup: Not Available
Route Data
Distance: 1360nm
Sched. Duration: 3h 18m
Avg. Duration: 3h 29m (+11m)
Times Flown: 1
Recm'd Route: CUPID Y820 SUNNS Y820 ADKAK G223 DAGDA A337 NOGAK A337 TEGOD G205 GUYES
Planned Altitude: 36,000ft
Origin Wx: RJAA 291100Z 18004KT 9999 FEW020 18/16 Q1015 NOSIG
Dest. Wx: PGUM 291054Z 07007KT 10SM CLR 28/22 A2997 RMK AO2 SLP142 T02830222
Notes:

Financial History
Total Freight: 78,202lbs
Average Load: 78,202lbs/flt
Fuel Used: 32,589lbs
Avg. Fuel Used: 32,589lbs/flt
Fuel Expense: $26,071
Avg. Fuel Expense: $26,071
Avg. Fuel Cost: $0.80/lbs
Total Gross Income: $123,559
Pilot Pay: $149
Total Expenses: $13,396
Total Revenue: $83,290
Average Revenue: $123,559.16